This demonstration page uses our WeatherBlox Daily Observations layout. Learn more.

Left ArrowRight Arrow

Hourly Observations for June 19, 2015

Temp ( °F °C ) Dew Point ( °F °C ) Humidity (%) Winds ( mph kmh ) Pressure ( in mb ) Visibility ( mi km ) Precip ( " mm )
12:59 am 00:59 Cloudy 80 26.7 67 19.4 64 64 W 9 15 29.99 1016 10 16 0.00 0.03
1:59 am 01:59 Mostly Cloudy 78 25.6 70 21.1 76 76 W 10 17 29.97 1015 10 16 0.00 0.00
2:59 am 02:59 Mostly Cloudy 77 25 69 20.6 77 77 W 12 19 29.97 1015 10 16 0.00 0.00
3:59 am 03:59 Mostly Cloudy 77 25 69 20.6 77 77 W 10 17 29.97 1015 10 16 0.00 0.00
4:59 am 04:59 Mostly Cloudy 77 25 69 20.6 77 77 W 9 15 29.96 1015 10 16 0.00 0.00
5:59 am 05:59 Mostly Cloudy 77 25 69 20.6 77 77 W 7 11 29.98 1015 10 16 0.00 0.00
6:59 am 06:59 Mostly Cloudy 77 25 70 21.1 79 79 W 9 15 29.99 1016 10 16 0.00 0.00
7:59 am 07:59 Partly Cloudy 78 25.6 70 21.1 76 76 W 10 17 29.99 1016 10 16 0.00 0.00
8:59 am 08:59 Partly Cloudy 80 26.7 70 21.1 71 71 W 9 15 30.00 1016 10 16 0.00 0.00
9:59 am 09:59 Partly Cloudy 83 28.3 70 21.1 65 65 W 7 11 30.01 1016 9 14 0.00 0.00
10:59 am 10:59 Partly Cloudy 87 30.6 69 20.6 55 55 W 7 11 30.01 1016 9 14 0.00 0.00
11:50 am 11:50 Partly Cloudy 70 21 54 12 57 57 WNW 7 11 29.71 1006 30 48 0.00 0.00
11:59 am 11:59 Mostly Sunny N/A N/A N/A WNW 7 11 N/A 0 1 0.00 0.00
12:59 pm 12:59 Partly Cloudy 91 32.8 67 19.4 45 45 WNW 6 9 30.00 1016 9 14 0.00 0.00
1:59 pm 13:59 Partly Cloudy 92 33.3 66 18.9 43 43 WSW 7 11 29.99 1016 10 16 0.00 0.00
3:59 pm 15:59 Mostly Cloudy 91 32.8 69 20.6 49 49 NE 8 13 29.98 1015 10 16 0.00 0.00
4:59 pm 16:59 Mostly Cloudy 88 31.1 69 20.6 54 54 E 8 13 29.96 1015 9 14 0.00 0.00
5:59 pm 17:59 Mostly Cloudy 87 30.6 67 19.4 51 51 ENE 9 15 29.96 1015 9 14 0.00 0.00
6:59 pm 18:59 Mostly Cloudy 85 29.4 68 20 57 57 ENE 9 15 29.98 1015 10 16 0.00 0.00
7:59 pm 19:59 Mostly Cloudy 82 27.8 74 23.3 77 77 E 5 7 30.09 1019 10 16 0.00 0.00
8:59 pm 20:59 Mostly Cloudy 80 26.7 69 20.6 69 69 ESE 3 6 29.98 1015 10 16 0.00 0.00
9:59 pm 21:59 Mostly Cloudy 81 27.2 68 20 65 65 SE 5 7 30.01 1016 10 16 0.00 0.00
10:59 pm 22:59 Mostly Cloudy 82 27.8 67 19.4 60 60 SE 7 11 30.02 1017 10 16 0.00 0.00
11:59 pm 23:59 Mostly Cloudy 81 27.2 66 18.9 61 61 ESE 5 7 30.02 1017 10 16 0.00 0.00

Powered by AerisWeather